Volver al catálogo

COSMOS 252 DEB

ActivoLEO
NORAD 3561·DEBRIS·🇷🇺 Russia

Lanzado Nov 1, 1968 desde Baikonur Cosmodrome

Loading…

Próximos Pases (próximas 24 horas)

TLE

ActualizadoSource: Space-Track

Época: Sep 14, 2026, 14:31 UTC

1 03561U 68097P   26257.60539491  .00003053  00000-0  46149-3 0  9992
2 03561  62.2643 110.0322 0366909 343.1705  15.7438 14.39747035854092

Sigue COSMOS 252 DEB en tiempo real con AllMySat

Download on the App Store